WA4ISB-1 Weather Reports


time (UTC)temp
F
wind
direction
speed
knots
gust
knots
rain 1hr
in
rain 24hr
in
rain mn
in
humidity
%
barometer
mb
20200531072801 74 282 0.0 0.0 0.00 0.00 0.00 84 1015.1
20200531072613 74 282 0.0 0.0 0.00 0.00 0.00 84 1015.1
20200531072228 75 286 0.0 0.0 0.00 0.00 0.00 84 1015.2
20200531072113 75 286 0.0 0.0 0.00 0.00 0.00 84 1015.2
20200531071650 75 94 0.0 0.9 0.00 0.00 0.00 84 1015.3
20200531071613 75 94 0.0 0.9 0.00 0.00 0.00 84 1015.3
20200531071113 74 140 0.0 0.9 0.00 0.00 0.00 84 1015.1
20200531070649 75 132 0.0 0.9 0.00 0.00 0.00 84 1015.4
20200531070615 75 132 0.0 0.9 0.00 0.00 0.00 84 1015.4
20200531070112 75 23 0.0 0.0 0.00 0.00 0.00 84 1015.2
20200531065612 75 23 0.0 0.0 0.00 0.00 0.00 83 1015.3
20200531064659 75 23 0.0 0.0 0.00 0.00 0.00 83 1015.2
20200531064611 75 23 0.0 0.0 0.00 0.00 0.00 83 1015.2
20200531064113 75 23 0.0 0.0 0.00 0.00 0.00 83 1015.2
20200531063702 75 101 0.0 0.0 0.00 0.00 0.00 83 1015.4
20200531063205 75 101 0.0 0.0 0.00 0.00 0.00 83 1015.4
20200531063110 75 101 0.0 0.0 0.00 0.00 0.00 83 1015.4
20200531062610 75 101 0.0 0.0 0.00 0.00 0.00 83 1015.5
20200531061651 75 101 0.0 0.0 0.00 0.00 0.00 82 1015.5
20200531061611 75 101 0.0 0.0 0.00 0.00 0.00 82 1015.5
20200531061110 75 101 0.0 0.9 0.00 0.00 0.00 82 1015.5
20200531055647 75 52 0.0 0.0 0.00 0.00 0.00 82 1015.6
20200531055610 75 52 0.0 0.0 0.00 0.00 0.00 82 1015.6
20200531055108 75 52 0.0 0.0 0.00 0.00 0.00 82 1015.7
20200531054610 75 52 0.0 0.9 0.00 0.00 0.00 82 1015.8
20200531054108 75 237 0.0 0.0 0.00 0.00 0.00 81 1015.9
20200531052106 75 88 0.0 0.9 0.00 0.00 0.00 81 1016.2
20200531050105 76 119 0.0 3.5 0.00 0.00 0.00 81 1016.5
20200531045605 76 146 2.6 3.5 0.00 0.00 0.00 81 1016.5
20200531041602 77 180 0.0 0.0 0.00 0.00 0.00 78 1016.7
20200531035101 77 180 0.0 0.0 0.00 0.00 0.00 77 1016.9
20200531033602 77 82 0.0 0.0 0.00 0.00 0.00 77 1016.9
20200531031059 77 82 0.0 2.6 0.00 0.00 0.00 75 1016.8
20200531030558 77 151 0.0 0.9 0.00 0.00 0.00 76 1016.9
20200531030058 77 198 0.9 1.7 0.00 0.00 0.00 75 1016.8
20200531025558 77 180 1.7 1.7 0.00 0.00 0.00 76 1016.9
20200531025058 77 191 0.0 0.0 0.00 0.00 0.00 75 1016.9
20200531024557 77 191 0.0 0.0 0.00 0.00 0.00 75 1016.9
20200531024404 78 206 0.9 0.9 0.00 0.00 0.00 75 1016.7
20200531024134 77 191 0.0 0.0 0.00 0.00 0.00 75 1016.8
20200531024059 77 191 0.0 0.0 0.00 0.00 0.00 75 1016.8
20200531023556 78 191 0.0 0.9 0.00 0.00 0.00 75 1016.8
20200531023133 78 206 0.9 0.9 0.00 0.00 0.00 75 1016.7
20200531023056 78 206 0.9 0.9 0.00 0.00 0.00 75 1016.7
20200531022934 78 187 0.0 5.2 0.00 0.00 0.00 75 1016.7
20200531022556 78 208 0.0 2.6 0.00 0.00 0.00 75 1016.7
20200531022056 78 172 1.7 2.6 0.00 0.00 0.00 75 1016.8
20200531021555 78 187 0.0 5.2 0.00 0.00 0.00 75 1016.7
20200531020555 78 187 2.6 2.6 0.00 0.00 0.00 75 1016.6
20200531015919 78 168 1.7 4.3 0.00 0.00 0.00 75 1016.4
20200531015555 78 202 0.9 2.6 0.00 0.00 0.00 75 1016.4
20200531015054 78 164 1.7 3.5 0.00 0.00 0.00 75 1016.3
20200531014554 78 168 1.7 4.3 0.00 0.00 0.00 75 1016.4
20200531014053 78 167 2.6 3.5 0.00 0.00 0.00 75 1016.4
20200531013553 78 210 1.7 2.6 0.00 0.00 0.00 75 1016.3
20200531012553 78 123 1.7 3.5 0.00 0.00 0.00 75 1016.3
20200531012259 80 143 2.6 10.4 0.00 0.00 0.00 71 1016.0
20200531012052 78 157 2.6 6.1 0.00 0.00 0.00 74 1016.2
20200531011552 78 189 6.1 9.6 0.00 0.00 0.00 74 1016.2
20200531011139 79 205 1.7 9.6 0.00 0.00 0.00 73 1016.3
20200531011051 79 205 1.7 9.6 0.00 0.00 0.00 73 1016.3
20200531010551 79 133 7.0 11.3 0.00 0.00 0.00 72 1016.2
20200531005551 80 143 2.6 10.4 0.00 0.00 0.00 71 1016.0
20200531005050 81 180 7.0 8.7 0.00 0.00 0.00 69 1015.9
20200531004707 82 171 5.2 8.7 0.00 0.00 0.00 67 1015.8
20200531004550 82 171 5.2 8.7 0.00 0.00 0.00 67 1015.8
20200531003549 83 2 0.0 0.9 0.00 0.00 0.00 68 1015.5
20200531002549 83 348 0.9 2.6 0.00 0.00 0.00 67 1015.3
20200531001638 83 278 0.0 3.5 0.00 0.00 0.00 67 1015.2
20200531001548 83 278 0.0 3.5 0.00 0.00 0.00 67 1015.2
20200531000646 83 295 0.0 2.6 0.00 0.00 0.00 67 1015.0
20200531000548 83 295 0.0 2.6 0.00 0.00 0.00 67 1015.0
20200530234547 84 299 0.0 2.6 0.00 0.00 0.00 66 1014.8
20200530233546 84 327 0.0 3.5 0.00 0.00 0.00 67 1014.7
20200530233046 84 282 0.9 4.3 0.00 0.00 0.00 66 1014.6
20200530232545 84 282 0.9 5.2 0.00 0.00 0.00 66 1014.6
20200530232345 85 324 0.9 2.6 0.00 0.00 0.00 66 1014.4
20200530232045 85 341 0.9 3.5 0.00 0.00 0.00 66 1014.5
20200530231545 85 324 0.9 2.6 0.00 0.00 0.00 66 1014.4
20200530231044 85 350 0.9 6.1 0.00 0.00 0.00 65 1014.2
20200530230544 85 275 1.7 7.8 0.00 0.00 0.00 66 1014.1
20200530225544 85 319 1.7 6.1 0.00 0.00 0.00 66 1013.9
20200530224543 85 333 3.5 6.1 0.00 0.00 0.00 65 1013.7
20200530223544 86 260 2.6 7.0 0.00 0.00 0.00 65 1013.7
20200530223043 86 260 1.7 6.1 0.00 0.00 0.00 65 1013.7
20200530222044 86 127 0.9 8.7 0.00 0.00 0.00 64 1013.7
20200530212538 87 309 0.9 4.3 0.00 0.00 0.00 63 1014.1
20200530212038 87 30 0.0 8.7 0.00 0.00 0.00 62 1014.2
20200530211538 87 309 0.9 6.1 0.00 0.00 0.00 62 1014.2
20200530211037 87 253 0.0 4.3 0.00 0.00 0.00 62 1014.2
20200530210537 87 322 0.0 4.3 0.00 0.00 0.00 62 1014.2
20200530205537 87 307 7.0 7.8 0.00 0.00 0.00 60 1014.3
20200530205038 87 188 0.0 6.1 0.00 0.00 0.00 60 1014.3
20200530204536 87 265 1.7 5.2 0.00 0.00 0.00 59 1014.4
20200530204036 87 241 2.6 7.8 0.00 0.00 0.00 58 1014.5
20200530203535 88 319 1.7 6.1 0.00 0.00 0.00 60 1014.7
20200530203107 88 234 0.0 4.3 0.00 0.00 0.00 60 1014.8
20200530203035 88 234 0.0 4.3 0.00 0.00 0.00 60 1014.8
20200530202610 87 147 0.9 7.0 0.00 0.00 0.00 61 1014.9
20200530202535 87 147 0.9 7.0 0.00 0.00 0.00 61 1014.9
20200530202036 87 19 0.0 5.2 0.00 0.00 0.00 61 1015.0
20200530201034 87 285 2.6 7.0 0.00 0.00 0.00 61 1014.9
20200530200534 87 230 2.6 6.1 0.00 0.00 0.00 61 1014.9
20200530200033 87 175 1.7 7.8 0.00 0.00 0.00 62 1014.9
20200530195533 87 227 2.6 7.8 0.00 0.00 0.00 61 1014.8
20200530195247 89 323 2.6 5.2 0.00 0.00 0.00 58 1015.1
20200530195034 87 302 3.5 7.0 0.00 0.00 0.00 60 1014.9
20200530194605 88 198 0.0 8.7 0.00 0.00 0.00 60 1015.0
20200530194532 88 198 0.0 8.7 0.00 0.00 0.00 60 1015.0
20200530193606 88 291 2.6 7.0 0.00 0.00 0.00 58 1015.0
20200530193532 88 291 2.6 7.0 0.00 0.00 0.00 58 1015.0
20200530192604 89 300 1.7 7.8 0.00 0.00 0.00 57 1015.1
20200530192531 89 300 1.7 7.8 0.00 0.00 0.00 57 1015.1
20200530192032 88 302 2.6 7.0 0.00 0.00 0.00 56 1015.1
20200530191531 89 260 3.5 7.8 0.00 0.00 0.00 56 1015.2
20200530190530 89 323 2.6 5.2 0.00 0.00 0.00 58 1015.1
20200530185529 89 322 1.7 7.8 0.00 0.00 0.00 58 1015.1
20200530185029 88 253 0.0 3.5 0.00 0.00 0.00 59 1015.1
20200530184529 88 298 0.9 5.2 0.00 0.00 0.00 59 1015.2
20200530183530 88 305 0.0 6.1 0.00 0.00 0.00 57 1015.4
20200530183028 88 291 1.7 5.2 0.00 0.00 0.00 59 1015.4
20200530180527 89 229 0.0 4.3 0.00 0.00 0.00 61 1015.5
20200530180026 89 271 0.9 3.5 0.00 0.00 0.00 59 1015.5
20200530175526 89 250 0.9 4.3 0.00 0.00 0.00 59 1015.7
20200530174525 88 219 0.0 6.1 0.00 0.00 0.00 59 1015.8
20200530174026 88 262 0.0 7.0 0.00 0.00 0.00 59 1016.0
20200530173525 89 217 0.0 6.1 0.00 0.00 0.00 58 1016.0
20200530162521 87 265 0.0 3.5 0.00 0.00 0.00 62 1016.4
20200530162021 88 246 0.0 3.5 0.00 0.00 0.00 62 1016.3
20200530161520 88 248 0.0 3.5 0.00 0.00 0.00 62 1016.3
20200530161020 88 284 1.7 5.2 0.00 0.00 0.00 62 1016.4
20200530160021 87 281 0.0 1.7 0.00 0.00 0.00 62 1016.4
20200530155019 87 241 0.0 4.3 0.00 0.00 0.00 63 1016.4
20200530154518 87 319 2.6 2.6 0.00 0.00 0.00 63 1016.4
20200530154018 87 261 0.0 6.1 0.00 0.00 0.00 63 1016.5
20200530153518 87 282 0.0 3.5 0.00 0.00 0.00 62 1016.4
20200530153017 87 255 0.0 5.2 0.00 0.00 0.00 64 1016.5
20200530152017 87 307 2.6 4.3 0.00 0.00 0.00 63 1016.5
20200530151517 87 164 0.0 3.5 0.00 0.00 0.00 63 1016.4
20200530150516 86 319 1.7 3.5 0.00 0.00 0.00 64 1016.6
20200530150017 86 201 0.0 4.3 0.00 0.00 0.00 66 1016.6
20200530145517 86 203 0.0 3.5 0.00 0.00 0.00 66 1016.6
20200530144016 85 163 0.0 1.7 0.00 0.00 0.00 66 1016.6
20200530143514 85 225 0.0 5.2 0.00 0.00 0.00 66 1016.5
20200530143014 85 205 3.5 5.2 0.00 0.00 0.00 65 1016.6
20200530142157 83 171 0.0 5.2 0.00 0.00 0.00 69 1016.7
20200530142018 85 239 0.0 0.0 0.00 0.00 0.00 66 1016.6
20200530141514 84 262 0.0 1.7 0.00 0.00 0.00 67 1016.6
20200530140514 84 161 3.5 4.3 0.00 0.00 0.00 66 1016.6
20200530134512 83 171 0.0 5.2 0.00 0.00 0.00 69 1016.7
20200530133010 82 158 0.0 4.3 0.00 0.00 0.00 73 1016.7
20200530131510 81 199 2.6 4.3 0.00 0.00 0.00 75 1016.7
20200530131009 80 182 1.7 4.3 0.00 0.00 0.00 76 1016.6
20200530130509 80 130 1.7 3.5 0.00 0.00 0.00 77 1016.6
20200530130056 80 149 1.7 2.6 0.00 0.00 0.00 78 1016.7
20200530130009 80 149 1.7 2.6 0.00 0.00 0.00 78 1016.7
20200530125508 80 205 1.7 3.5 0.00 0.00 0.00 78 1016.6
20200530125008 79 181 0.0 1.7 0.00 0.00 0.00 80 1016.6
20200530124731 75 147 0.0 0.0 0.00 0.00 0.00 87 1016.7
20200530124008 78 206 1.7 3.5 0.00 0.00 0.00 82 1016.7
20200530123507 78 192 0.9 2.6 0.00 0.00 0.00 82 1016.7
20200530123008 77 203 1.7 3.5 0.00 0.00 0.00 82 1016.7
20200530122507 77 184 0.9 3.5 0.00 0.00 0.00 84 1016.6
20200530121506 76 126 0.0 1.7 0.00 0.00 0.00 85 1016.7
20200530121008 76 178 1.7 1.7 0.00 0.00 0.00 86 1016.7
20200530120506 76 147 0.0 0.0 0.00 0.00 0.00 87 1016.6
20200530120008 75 147 0.0 0.0 0.00 0.00 0.00 87 1016.7
20200530115505 75 147 0.0 0.0 0.00 0.00 0.00 87 1016.7
20200530114505 74 147 0.0 1.7 0.00 0.00 0.00 88 1016.7
20200530113507 74 144 0.0 1.7 0.00 0.00 0.00 89 1016.6
20200530113504 74 144 0.0 1.7 0.00 0.00 0.00 89 1016.6
20200530113004 74 78 0.0 0.0 0.00 0.00 0.00 89 1016.6
20200530112004 74 78 0.0 0.0 0.00 0.00 0.00 90 1016.5
20200530111503 73 78 0.0 0.0 0.00 0.00 0.00 90 1016.4
20200530110003 73 78 0.0 0.0 0.00 0.00 0.00 89 1016.4
20200530105502 73 78 0.0 0.0 0.00 0.00 0.00 89 1016.4
20200530105001 73 78 0.0 0.0 0.00 0.00 0.00 89 1016.3
20200530104000 73 78 0.0 0.0 0.00 0.00 0.00 89 1016.4
20200530103000 73 78 0.0 0.0 0.00 0.00 0.00 89 1016.4
20200530102906 74 78 0.0 0.0 0.00 0.00 0.00 89 1016.2
20200530101506 74 78 0.0 0.0 0.00 0.00 0.00 89 1016.3
20200530101459 74 78 0.0 0.0 0.00 0.00 0.00 89 1016.3
20200530100959 74 78 0.0 0.0 0.00 0.00 0.00 89 1016.2
20200530100001 74 170 0.0 0.0 0.00 0.00 0.00 89 1016.1
20200530095958 74 170 0.0 0.0 0.00 0.00 0.00 89 1016.1
20200530095458 74 170 0.0 0.0 0.00 0.00 0.00 89 1016.0
20200530094457 74 170 0.0 0.0 0.00 0.00 0.00 89 1015.8
20200530093957 74 170 0.0 1.7 0.00 0.00 0.00 88 1015.8
20200530093847 74 29 0.0 0.0 0.00 0.00 0.00 87 1015.6
20200530093457 74 29 0.0 0.0 0.00 0.00 0.00 88 1015.7
20200530092956 74 29 0.0 0.0 0.00 0.00 0.00 88 1015.8
20200530092456 74 29 0.0 0.0 0.00 0.00 0.00 88 1015.6
20200530091957 74 29 0.0 0.0 0.00 0.00 0.00 88 1015.6
20200530091455 74 29 0.0 0.0 0.00 0.00 0.00 88 1015.6
20200530090955 74 29 0.0 0.0 0.00 0.00 0.00 88 1015.6
20200530090455 74 29 0.0 0.0 0.00 0.00 0.00 88 1015.5
20200530085955 74 29 0.0 0.0 0.00 0.00 0.00 88 1015.5
20200530085454 74 29 0.0 0.0 0.00 0.00 0.00 88 1015.5
20200530084954 74 29 0.0 0.0 0.00 0.00 0.00 87 1015.7
20200530083953 74 29 0.0 0.0 0.00 0.00 0.00 87 1015.6
20200530083453 74 29 0.0 0.0 0.00 0.00 0.00 87 1015.7
20200530082953 74 29 0.0 0.0 0.00 0.00 0.00 87 1015.6
20200530082454 74 29 0.0 0.0 0.00 0.00 0.00 87 1015.7
20200530081952 74 29 0.0 0.0 0.00 0.00 0.00 87 1015.7
20200530081452 74 29 0.0 0.0 0.00 0.00 0.00 86 1015.7
20200530080954 74 29 0.0 0.0 0.00 0.00 0.00 86 1015.6
20200530080952 74 29 0.0 0.0 0.00 0.00 0.00 86 1015.6
20200530080451 74 29 0.0 0.0 0.00 0.00 0.00 86 1015.8
20200530075951 74 35 0.0 0.0 0.00 0.00 0.00 86 1015.7
20200530075451 75 21 0.0 1.7 0.00 0.00 0.00 86 1015.7
20200530074950 74 39 0.9 1.7 0.00 0.00 0.00 86 1015.7
20200530074450 74 61 0.0 0.0 0.00 0.00 0.00 86 1015.9
20200530073950 74 61 0.0 0.0 0.00 0.00 0.00 86 1015.9
20200530073450 75 61 0.0 0.0 0.00 0.00 0.00 85 1016.1